{"data":{"norad_id":55963,"epoch":"2026-05-25T04:38:30.891840Z","epoch_age_seconds":54482,"freshness":"FRESH","line1":"1 55963U 23037BB  26145.19341310  .00000038  00000+0  11018-4 0  9998","line2":"2 55963  70.0006  71.5292 0002942 261.8340  98.2485 14.98331192175932","mean_motion":14.98331192,"eccentricity":0.0002942,"inclination_deg":70.0006,"raan_deg":71.5292,"arg_perigee_deg":261.834,"mean_anomaly_deg":98.2485,"bstar":1.1018e-5,"rev_number":17593,"period_min":96.106922667602,"perigee_km":570.00745912114,"apogee_km":574.09695044924,"semimajor_km":6950.1892047852,"source":"CELESTRAK","updated_at":"2026-05-25T13:38:17.920937Z"}}